[[{"header":{"parameterUnit":"m.s-1","parameterCategory":1,"la1":30.2991,"la2":30.254,"lo1":-89.0895,"lo2":-89.0444,"dy":0.0017,"dx":0.0017,"nx":28,"ny":28,"refTime":"2024-05-29T09:00:00:Z","depth":0,"parameterNumber":2,"parameterNumberName":"U-component_of_WINDS"},"data":[0,0,0,0,0,0,0,0,0,0,0,0,0,0,0,0,0,0,0,0,0,0,0,0,0,0,0,0,0,0,0,0,0,0,0,0,0,0,0,0,0,0,0,0,0,0,0,0,0,0,0,0,0,0,0,0,0,0,-5.2422,-5.2422,0,-5.2378,-5.2378,-5.2377,-5.2234,-5.223,-5.2227,-5.2224,-5.2182,-5.2184,-5.2186,0,0,0,0,0,0,0,0,0,0,0,0,0,-5.2385,-5.2386,-5.2422,-5.2422,-5.2421,-5.2378,-5.2378,-5.2377,-5.2234,-5.223,-5.2226,-5.2223,-5.2182,-5.2184,-5.2186,0,0,0,0,0,0,0,0,0,0,0,0,0,-5.2377,-5.2387,-5.2422,-5.2344,-5.2337,-5.2379,-5.2378,-5.2377,-5.2235,-5.223,-5.2225,-5.2221,-5.2181,-5.2184,-5.2186,-5.2301,0,0,-5.2195,-5.2196,0,0,0,0,0,0,0,0,-5.2378,-5.2379,-5.2356,-5.235,-5.2342,-5.2306,-5.2349,-5.2352,-5.2236,-5.2274,-5.2224,-5.2219,-5.2228,-5.2226,-5.2229,-5.2299,-5.2297,-5.2195,-5.2197,-5.2198,-5.2199,0,0,0,0,0,0,0,-5.2379,-5.238,-5.2405,-5.2356,-5.2347,-5.2313,-5.2306,-5.2349,-5.2279,-5.227,-5.226,-5.2256,-5.2223,-5.2227,-5.2227,-5.2296,-5.2195,-5.2198,-5.2199,-5.2201,-5.2459,-5.2464,0,0,0,0,0,0,-5.239,-5.2381,-5.2406,-5.2403,-5.2348,-5.2317,-5.231,-5.2323,-5.2278,-5.2266,-5.2261,-5.225,-5.2224,-5.2224,-5.2225,-5.2356,-5.2198,-5.2201,-5.2202,-5.2454,-5.246,-5.2465,0,0,0,0,0,0,-5.239,-5.2393,-5.2408,-5.2389,-5.2389,-5.2323,-5.2338,-5.2324,-5.2328,-5.227,-5.2257,-5.2277,-5.222,-5.2221,-5.2283,-5.2353,-5.2202,-5.2205,-5.2448,-5.2456,-5.2463,-5.262,0,0,0,0,0,0,-5.2389,-5.2394,-5.2436,-5.2391,-5.239,-5.2466,-5.2343,-5.2327,-5.2333,-5.2318,-5.2282,-5.2272,-5.2216,-5.2279,-5.2286,-5.2354,-5.2207,-5.2441,-5.2451,-5.246,-5.2608,-5.2632,-5.2653,0,0,0,0,0,-5.2388,-5.2482,-5.2439,-5.2443,-5.2441,-5.2471,-5.247,-5.2404,-5.2339,-5.2381,-5.2344,-5.2273,-5.2344,-5.2287,-5.2293,-5.2363,-5.2436,-5.2448,-5.2459,-5.2598,-5.2628,-5.2652,0,0,0,0,0,0,-5.2537,-5.2475,-5.2426,-5.2508,-5.2496,-5.2446,-5.2497,-5.2436,-5.2443,-5.2429,-5.2347,-5.234,-5.2415,-5.2394,-5.2332,-5.2472,-5.2378,-5.2392,-5.2482,-5.2509,-5.2531,-5.2535,-5.2209,0,0,0,0,0,-5.258,-5.2608,-5.2552,-5.2631,-5.2627,-5.2564,-5.2574,-5.2524,-5.2508,-5.2502,-5.247,-5.2458,-5.2477,-5.2492,-5.2507,-5.2605,-5.2596,-5.2656,-5.2678,-5.2697,-5.271,-5.2761,-5.2788,-5.2504,-5.2503,-5.2503,0,0,-5.2668,-5.2637,-5.266,-5.266,-5.2644,-5.2676,-5.256,-5.2599,-5.2622,-5.2508,-5.2565,-5.2541,-5.2522,-5.2603,-5.2637,-5.2589,-5.2786,-5.2711,-5.2727,-5.2729,-5.2776,-5.2803,-5.2827,-5.2511,-5.251,-5.2509,0,0,-5.2845,-5.2824,-5.2887,-5.2874,-5.2852,-5.2809,-5.2825,-5.2785,-5.2765,-5.282,-5.2735,-5.2763,-5.2798,-5.2788,-5.2788,-5.2964,-5.2899,-5.2971,-5.3087,-5.3138,-5.3161,-5.318,-5.3244,-5.3268,-5.2983,-5.2984,-5.2984,0,-5.2958,-5.3002,-5.2928,-5.2973,-5.2976,-5.2873,-5.2938,-5.2928,-5.2913,-5.2918,-5.2864,-5.2907,-5.2887,-5.2965,-5.3008,-5.3011,-5.3027,-5.2975,-5.3163,-5.3182,-5.3199,-5.3259,-5.3283,-5.2993,-5.2992,-5.2991,-5.299,0,-5.3142,-5.3174,-5.3228,-5.3215,-5.3224,-5.3279,-5.3214,-5.3232,-5.3182,-5.3146,-5.3205,-5.3177,-5.3185,-5.32,-5.3151,-5.3272,-5.3243,-5.3178,-5.3082,-5.3237,-5.3292,-5.3314,-5.3006,-5.3002,-5.3,-5.2998,0,0,-5.3411,-5.3357,-5.3379,-5.3372,-5.334,-5.3364,-5.3415,-5.3422,-5.344,-5.3433,-5.3474,-5.3507,-5.3446,-5.3447,-5.3396,-5.3441,-5.3583,-5.337,-5.3368,-5.3412,-5.3716,-5.3767,-5.3794,-5.354,-5.3544,-5.3547,-5.3718,0,-5.358,-5.3662,-5.3598,-5.3692,-5.3722,-5.3626,-5.367,-5.3657,-5.3625,-5.3646,-5.361,-5.3635,-5.3553,-5.3553,-5.3593,-5.3558,-5.3644,-5.3544,-5.3579,-5.3581,-5.3588,-5.3823,-5.3875,-5.4038,-5.3739,-5.3743,-5.3745,0,-5.3788,-5.379,-5.3888,-5.3851,-5.3861,-5.3901,-5.3904,-5.3925,-5.3908,-5.3881,-5.3883,-5.382,-5.3869,-5.3775,-5.3841,-5.3775,-5.3785,-5.3771,-5.3775,-5.3777,-5.3673,-5.3832,-5.4088,-5.4114,-5.3778,-5.3776,-5.3773,0,-5.3977,-5.4004,-5.4065,-5.4063,-5.4021,-5.4052,-5.4037,-5.4014,-5.4024,-5.4026,-5.4031,-5.404,-5.4045,-5.4053,-5.3996,-5.3932,-5.407,-5.3971,-5.4051,-5.4053,-5.4085,-5.4084,-5.4348,-5.409,-5.409,-5.409,-5.4089,0,-5.4172,-5.4236,-5.415,-5.4188,-5.4257,-5.4183,-5.4254,-5.4228,-5.421,-5.4243,-5.416,-5.4193,-5.4114,-5.4139,-5.4094,-5.4157,-5.4159,-5.4141,-5.4128,-5.4148,-5.4151,-5.4155,-5.4142,-5.4096,-5.4095,-5.4093,-5.4092,0,-5.4394,-5.4339,-5.44,-5.4356,-5.4347,-5.44,-5.4362,-5.4397,-5.4359,-5.4402,-5.4407,-5.4349,-5.4374,-5.4318,-5.4335,-5.4305,-5.4394,-5.4363,-5.44,-5.4391,-5.4475,-5.4468,-5.4751,-5.4785,-5.4506,-5.4509,-5.4511,0,-5.4523,-5.457,-5.4531,-5.4546,-5.4535,-5.4561,-5.457,-5.45,-5.4513,-5.4498,-5.4534,-5.4553,-5.4563,-5.4609,-5.4569,-5.4582,-5.4551,-5.465,-5.4553,-5.4572,-5.4554,-5.4553,-5.4557,-5.467,-5.4673,-5.4676,-5.4678,0,-5.4758,-5.4729,-5.4744,-5.4751,-5.4764,-5.4766,-5.4762,-5.478,-5.4705,-5.4724,-5.4748,-5.4757,-5.4774,-5.4794,-5.4798,-5.4783,-5.472,-5.4709,-5.4729,-5.475,-5.477,-5.4762,-5.4456,-5.4703,-5.4701,-5.4699,-5.4698,-5.4697,-5.4938,-5.4976,-5.4955,-5.4975,-5.4965,-5.4963,-5.4994,-5.496,-5.4979,-5.4988,-5.4945,-5.498,-5.4963,-5.4962,-5.4954,-5.498,-5.4936,-5.4964,-5.4971,-5.4979,-5.4994,-5.4766,-5.4981,-5.498,-5.4979,-5.4979,-5.4978,0,-5.517,-5.5152,-5.5171,-5.5168,-5.5185,-5.5123,-5.5115,-5.5134,-5.5165,-5.5154,-5.5167,-5.5196,-5.5215,-5.5177,-5.519,-5.5219,-5.5191,-5.5225,-5.5223,-5.5221,-5.5032,-5.5014,-5.5249,-5.5249,-5.5248,-5.5248,-5.5248,-5.5248,-5.5293,-5.5353,-5.5322,-5.5377,-5.5358,-5.5391,-5.5392,-5.5391,-5.5382,-5.5419,-5.5434,-5.5409,-5.5388,-5.5399,-5.5414,-5.5403,-5.5412,-5.5458,-5.5436,-5.526,-5.5234,-5.5209,-5.5192,-5.546,-5.546,-5.5623,-5.5625,-5.5626]},{"header":{"parameterUnit":"m.s-1","parameterCategory":1,"la1":30.2991,"la2":30.254,"lo1":-89.0895,"lo2":-89.0444,"dy":0.0017,"dx":0.0017,"nx":28,"ny":28,"refTime":"2024-05-29T09:00:00:Z","depth":0,"parameterNumber":3,"parameterNumberName":"V-component_of_WINDS"},"data":[0,0,0,0,0,0,0,0,0,0,0,0,0,0,0,0,0,0,0,0,0,0,0,0,0,0,0,0,0,0,0,0,0,0,0,0,0,0,0,0,0,0,0,0,0,0,0,0,0,0,0,0,0,0,0,0,0,0,-1.1136,-1.1136,0,-1.1191,-1.1191,-1.1192,-1.12,-1.1199,-1.1199,-1.1198,-1.1255,-1.1257,-1.1259,0,0,0,0,0,0,0,0,0,0,0,0,0,-1.1037,-1.1039,-1.1136,-1.1137,-1.1137,-1.1191,-1.1191,-1.1192,-1.12,-1.1199,-1.1199,-1.1198,-1.1254,-1.1257,-1.1259,0,0,0,0,0,0,0,0,0,0,0,0,0,-1.1085,-1.104,-1.1136,-1.1148,-1.1149,-1.119,-1.1191,-1.1192,-1.12,-1.1199,-1.1199,-1.1198,-1.1253,-1.1256,-1.1259,-1.1293,0,0,-1.1268,-1.127,0,0,0,0,0,0,0,0,-1.1082,-1.1088,-1.1145,-1.1147,-1.1149,-1.1188,-1.1177,-1.1226,-1.12,-1.1181,-1.1198,-1.1198,-1.1233,-1.1238,-1.125,-1.1295,-1.1298,-1.1269,-1.127,-1.1272,-1.1272,0,0,0,0,0,0,0,-1.1079,-1.1086,-1.1158,-1.1146,-1.1148,-1.115,-1.1156,-1.1186,-1.1211,-1.1182,-1.1183,-1.119,-1.1234,-1.1247,-1.1251,-1.1298,-1.1268,-1.1271,-1.1273,-1.1274,-1.1373,-1.1374,0,0,0,0,0,0,-1.1073,-1.1083,-1.1156,-1.1159,-1.1113,-1.1152,-1.1159,-1.1176,-1.121,-1.1215,-1.119,-1.119,-1.1242,-1.1248,-1.1253,-1.1294,-1.1272,-1.1274,-1.1276,-1.1372,-1.1373,-1.1374,0,0,0,0,0,0,-1.1071,-1.108,-1.1154,-1.1121,-1.1131,-1.1155,-1.1174,-1.1177,-1.119,-1.1216,-1.122,-1.1199,-1.1242,-1.1249,-1.1282,-1.1296,-1.1276,-1.1278,-1.1371,-1.1372,-1.1373,-1.1376,0,0,0,0,0,0,-1.1068,-1.1079,-1.1092,-1.1122,-1.1133,-1.1182,-1.1175,-1.1179,-1.1195,-1.1195,-1.1225,-1.123,-1.1242,-1.1278,-1.1285,-1.13,-1.1281,-1.137,-1.1372,-1.1373,-1.1375,-1.1377,-1.1379,0,0,0,0,0,-1.1065,-1.1091,-1.1093,-1.1102,-1.115,-1.1183,-1.1189,-1.1203,-1.1196,-1.121,-1.1226,-1.1229,-1.1293,-1.1281,-1.129,-1.1305,-1.1369,-1.1371,-1.1373,-1.1374,-1.1377,-1.1379,0,0,0,0,0,0,-1.1063,-1.1095,-1.1098,-1.1134,-1.1156,-1.1184,-1.1202,-1.1205,-1.123,-1.1229,-1.1244,-1.1251,-1.1283,-1.1297,-1.1284,-1.1339,-1.1331,-1.1334,-1.1328,-1.1331,-1.1334,-1.133,-1.1283,0,0,0,0,0,-1.1067,-1.1091,-1.1118,-1.1148,-1.1158,-1.1178,-1.1193,-1.1201,-1.1224,-1.1234,-1.1253,-1.1275,-1.13,-1.1316,-1.1341,-1.1377,-1.1383,-1.1391,-1.1393,-1.1395,-1.1398,-1.1418,-1.1422,-1.138,-1.138,-1.138,0,0,-1.1075,-1.1096,-1.1111,-1.1148,-1.1166,-1.119,-1.1186,-1.1213,-1.1231,-1.1238,-1.1271,-1.1285,-1.1311,-1.1345,-1.1361,-1.1358,-1.1411,-1.1398,-1.1399,-1.1401,-1.142,-1.1424,-1.1428,-1.1382,-1.1381,-1.1381,0,0,-1.1103,-1.1121,-1.1148,-1.1165,-1.1192,-1.1204,-1.1211,-1.1238,-1.1248,-1.1281,-1.1286,-1.1308,-1.1351,-1.1369,-1.1384,-1.1417,-1.142,-1.1424,-1.1436,-1.1455,-1.1458,-1.1461,-1.1473,-1.1477,-1.1427,-1.1427,-1.1427,0,-1.111,-1.1148,-1.1161,-1.1187,-1.1203,-1.121,-1.1236,-1.1253,-1.1286,-1.1297,-1.1292,-1.1346,-1.1364,-1.1402,-1.141,-1.1422,-1.1429,-1.1422,-1.1457,-1.146,-1.1463,-1.1474,-1.1479,-1.1428,-1.1428,-1.1428,-1.1428,0,-1.1156,-1.1181,-1.12,-1.1231,-1.1249,-1.1275,-1.1292,-1.1308,-1.1314,-1.1327,-1.136,-1.1381,-1.141,-1.1419,-1.1426,-1.1458,-1.1455,-1.1454,-1.1446,-1.1467,-1.1478,-1.1482,-1.1428,-1.1428,-1.1428,-1.1428,0,0,-1.1186,-1.1223,-1.1229,-1.1243,-1.1272,-1.1292,-1.1318,-1.1346,-1.136,-1.1382,-1.1404,-1.1439,-1.1438,-1.1454,-1.1462,-1.1479,-1.1503,-1.1475,-1.1476,-1.148,-1.154,-1.1542,-1.1547,-1.1505,-1.1506,-1.1506,-1.1538,0,-1.1217,-1.1264,-1.1276,-1.1316,-1.1339,-1.1345,-1.1367,-1.1387,-1.14,-1.1421,-1.1435,-1.146,-1.1455,-1.1465,-1.1481,-1.1497,-1.1515,-1.1494,-1.1526,-1.1527,-1.152,-1.1552,-1.1555,-1.1584,-1.1542,-1.1543,-1.1544,0,-1.1261,-1.1284,-1.1326,-1.1351,-1.1361,-1.1381,-1.1407,-1.1428,-1.145,-1.1458,-1.1475,-1.1482,-1.1508,-1.1498,-1.1535,-1.152,-1.1534,-1.1543,-1.1544,-1.1548,-1.1537,-1.1558,-1.1593,-1.1598,-1.155,-1.155,-1.1549,0,-1.1279,-1.132,-1.1351,-1.1362,-1.1392,-1.1406,-1.1419,-1.144,-1.1456,-1.1478,-1.1488,-1.1513,-1.1527,-1.1546,-1.1558,-1.155,-1.1594,-1.1585,-1.1601,-1.1601,-1.1612,-1.1611,-1.165,-1.1619,-1.1619,-1.1619,-1.1619,0,-1.1314,-1.134,-1.1359,-1.1378,-1.1406,-1.1418,-1.1446,-1.1459,-1.1478,-1.1499,-1.1505,-1.1524,-1.1539,-1.1561,-1.1571,-1.16,-1.1606,-1.1613,-1.1615,-1.1613,-1.1612,-1.1622,-1.1621,-1.162,-1.162,-1.1619,-1.1619,0,-1.134,-1.1353,-1.1387,-1.1412,-1.1418,-1.1438,-1.1459,-1.1478,-1.1489,-1.1516,-1.1523,-1.1541,-1.1566,-1.158,-1.1613,-1.1619,-1.1651,-1.1653,-1.1644,-1.1645,-1.1661,-1.1659,-1.1708,-1.1715,-1.1679,-1.1679,-1.168,0,-1.1361,-1.1381,-1.1407,-1.1422,-1.1435,-1.1458,-1.1474,-1.1486,-1.1502,-1.1527,-1.1542,-1.1568,-1.1589,-1.163,-1.1646,-1.167,-1.1672,-1.1688,-1.1676,-1.1673,-1.1673,-1.1672,-1.1674,-1.169,-1.169,-1.1691,-1.1691,0,-1.1398,-1.1403,-1.1426,-1.145,-1.1468,-1.1488,-1.1508,-1.1519,-1.1534,-1.1552,-1.1577,-1.1594,-1.1626,-1.1651,-1.1677,-1.169,-1.1693,-1.1694,-1.1699,-1.1697,-1.1692,-1.1695,-1.165,-1.1693,-1.1693,-1.1693,-1.1693,-1.1693,-1.1423,-1.144,-1.1461,-1.1485,-1.1501,-1.1519,-1.1537,-1.155,-1.1572,-1.1599,-1.1604,-1.1632,-1.1652,-1.1687,-1.17,-1.1721,-1.1718,-1.1726,-1.1728,-1.173,-1.173,-1.1687,-1.1726,-1.1726,-1.1726,-1.1726,-1.1726,0,-1.146,-1.1473,-1.1495,-1.1522,-1.1541,-1.1541,-1.1563,-1.1578,-1.1602,-1.1621,-1.1641,-1.1671,-1.1695,-1.1712,-1.1737,-1.175,-1.1752,-1.1756,-1.1756,-1.1759,-1.1731,-1.1725,-1.1754,-1.1754,-1.1754,-1.1754,-1.1754,-1.1754,-1.1482,-1.1511,-1.1519,-1.1556,-1.1569,-1.1595,-1.1607,-1.1624,-1.1639,-1.1671,-1.1691,-1.1702,-1.172,-1.1745,-1.1767,-1.1772,-1.1781,-1.1785,-1.179,-1.1764,-1.1761,-1.1758,-1.1752,-1.1787,-1.1787,-1.1815,-1.1815,-1.1816]}]]